Location: Acton
(51.4942°N, 0.2232°W)
Time: 07:59:43
(UTC+00:00)

X-37B - Pass Details

Date: 05 February 2022
Orbit: 328 x 343 km, 45.0° (Epoch: 15 May)

Event Time Altitude Azimuth Distance (km) Brightness Sun altitude
Rises 19:00:53 0° 260° (W) 2,120 5.9 -19.4°
Reaches altitude 10° 19:04:00 10° 223° (SW) 1,274 3.8 -19.9°
Maximum altitude 19:04:56 11° 203° (SSW) 1,207 3.3 -20.0°
Enters shadow 19:05:37 11° 189° (S) 1,240 3.2 -20.1°
